Time,TemperatureF,DewpointF,PressureIn,WindDirection,WindDirectionDegrees,WindSpeedMPH,WindSpeedGustMPH,Humidity,HourlyPrecipIn,Conditions,Clouds,dailyrainin,SoftwareType,DateUTC
2013-03-21 00:05:00,48.7,23.0,29.50,SW,222,12.0,30.0,36,0.00,,,0.00,weatherlink.com 1.10,2013-03-21 07:05:00,
2013-03-21 00:20:00,48.5,24.0,29.49,WNW,287,15.0,26.0,38,0.00,,,0.00,weatherlink.com 1.10,2013-03-21 07:20:00,
2013-03-21 00:35:00,48.1,25.0,29.48,WNW,295,18.0,21.0,40,0.00,,,0.00,weatherlink.com 1.10,2013-03-21 07:35:00,
2013-03-21 00:50:00,47.7,25.0,29.47,SE,125,7.0,21.0,41,0.00,,,0.00,weatherlink.com 1.10,2013-03-21 07:50:00,
2013-03-21 01:05:00,47.5,25.0,29.46,WSW,249,13.0,30.0,42,0.00,,,0.00,weatherlink.com 1.10,2013-03-21 08:05:00,
2013-03-21 01:20:00,47.9,24.0,29.45,SW,230,14.0,29.0,39,0.00,,,0.00,weatherlink.com 1.10,2013-03-21 08:20:00,
2013-03-21 01:35:00,47.9,21.0,29.45,SW,221,18.0,28.0,35,0.00,,,0.00,weatherlink.com 1.10,2013-03-21 08:35:00,
2013-03-21 01:50:00,48.7,20.0,29.44,SW,236,13.0,25.0,32,0.00,,,0.00,weatherlink.com 1.10,2013-03-21 08:50:00,
2013-03-21 02:05:00,48.7,19.0,29.43,SSW,210,10.0,30.0,31,0.00,,,0.00,weatherlink.com 1.10,2013-03-21 09:05:00,
2013-03-21 02:20:00,49.2,19.0,29.43,West,278,18.0,28.0,30,0.00,,,0.00,weatherlink.com 1.10,2013-03-21 09:20:00,
2013-03-21 02:36:00,49.3,17.0,29.43,WSW,238,10.0,29.0,28,0.00,,,0.00,weatherlink.com 1.10,2013-03-21 09:36:00,
2013-03-21 02:51:00,49.3,16.0,29.43,West,259,24.0,28.0,26,0.00,,,0.00,weatherlink.com 1.10,2013-03-21 09:51:00,
2013-03-21 03:06:00,48.7,19.0,29.41,West,264,17.0,27.0,31,0.00,,,0.00,weatherlink.com 1.10,2013-03-21 10:06:00,
2013-03-21 03:21:00,47.9,23.0,29.41,WSW,250,17.0,31.0,37,0.00,,,0.00,weatherlink.com 1.10,2013-03-21 10:21:00,
2013-03-21 03:36:00,47.8,19.0,29.40,West,277,16.0,29.0,32,0.00,,,0.00,weatherlink.com 1.10,2013-03-21 10:36:00,
2013-03-21 03:51:00,48.5,16.0,29.40,West,264,19.0,33.0,27,0.00,,,0.00,weatherlink.com 1.10,2013-03-21 10:51:00,
2013-03-21 04:06:00,47.7,20.0,29.39,SW,229,23.0,31.0,34,0.00,,,0.00,weatherlink.com 1.10,2013-03-21 11:06:00,
2013-03-21 04:36:00,46.7,20.0,29.38,WSW,256,20.0,39.0,35,0.00,,,0.00,weatherlink.com 1.10,2013-03-21 11:36:00,
2013-03-21 05:06:00,45.4,26.0,29.38,SW,226,18.0,31.0,46,0.00,,,0.00,weatherlink.com 1.10,2013-03-21 12:06:00,
2013-03-21 05:21:00,44.6,27.0,29.38,SW,224,18.0,33.0,50,0.00,,,0.00,weatherlink.com 1.10,2013-03-21 12:21:00,
2013-03-21 05:36:00,44.9,26.0,29.38,West,259,27.0,30.0,47,0.00,,,0.00,weatherlink.com 1.10,2013-03-21 12:36:00,
2013-03-21 06:06:00,44.8,18.0,29.38,West,263,14.0,29.0,34,0.00,,,0.00,weatherlink.com 1.10,2013-03-21 13:06:00,
2013-03-21 06:21:00,44.8,18.0,29.38,West,263,23.0,32.0,34,0.00,,,0.00,weatherlink.com 1.10,2013-03-21 13:21:00,
2013-03-21 06:36:00,45.2,18.0,29.38,WSW,238,18.0,36.0,34,0.00,,,0.00,weatherlink.com 1.10,2013-03-21 13:36:00,
2013-03-21 06:51:00,45.3,19.0,29.38,WSW,253,33.0,37.0,35,0.00,,,0.00,weatherlink.com 1.10,2013-03-21 13:51:00,
2013-03-21 07:06:00,45.7,21.0,29.38,SW,224,17.0,30.0,37,0.00,,,0.00,weatherlink.com 1.10,2013-03-21 14:06:00,
2013-03-21 07:21:00,45.9,21.0,29.39,SW,233,24.0,26.0,38,0.00,,,0.00,weatherlink.com 1.10,2013-03-21 14:21:00,
2013-03-21 07:36:00,46.7,21.0,29.40,SW,221,11.0,28.0,36,0.00,,,0.00,weatherlink.com 1.10,2013-03-21 14:36:00,
2013-03-21 07:51:00,46.9,22.0,29.40,SW,235,10.0,21.0,38,0.00,,,0.00,weatherlink.com 1.10,2013-03-21 14:51:00,
2013-03-21 08:06:00,47.1,22.0,29.40,SW,223,10.0,17.0,37,0.00,,,0.00,weatherlink.com 1.10,2013-03-21 15:06:00,
2013-03-21 08:21:00,48.2,21.0,29.41,SW,235,9.0,17.0,34,0.00,,,0.00,weatherlink.com 1.10,2013-03-21 15:21:00,
2013-03-21 08:36:00,48.9,20.0,29.41,SW,221,10.0,17.0,32,0.00,,,0.00,weatherlink.com 1.10,2013-03-21 15:36:00,
2013-03-21 08:51:00,49.2,21.0,29.41,SW,219,14.0,21.0,33,0.00,,,0.00,weatherlink.com 1.10,2013-03-21 15:51:00,
2013-03-21 09:06:00,49.6,23.0,29.40,SSW,210,16.0,24.0,35,0.00,,,0.00,weatherlink.com 1.10,2013-03-21 16:06:00,
2013-03-21 09:21:00,50.3,22.0,29.40,WSW,253,11.0,26.0,33,0.00,,,0.00,weatherlink.com 1.10,2013-03-21 16:21:00,
2013-03-21 09:36:00,50.2,20.0,29.40,WSW,253,16.0,26.0,31,0.00,,,0.00,weatherlink.com 1.10,2013-03-21 16:36:00,
2013-03-21 09:51:00,50.3,25.0,29.41,SW,225,7.0,19.0,37,0.00,,,0.00,weatherlink.com 1.10,2013-03-21 16:51:00,
2013-03-21 10:06:00,50.7,26.0,29.43,WSW,253,11.0,14.0,39,0.00,,,0.00,weatherlink.com 1.10,2013-03-21 17:06:00,
2013-03-21 10:36:00,50.7,26.0,29.42,SSW,203,8.0,15.0,39,0.00,,,0.00,weatherlink.com 1.10,2013-03-21 17:36:00,
2013-03-21 10:51:00,50.8,28.0,29.42,WNW,302,8.0,13.0,41,0.00,,,0.00,weatherlink.com 1.10,2013-03-21 17:51:00,
2013-03-21 11:06:00,50.8,27.0,29.43,NW,321,4.0,10.0,40,0.00,,,0.00,weatherlink.com 1.10,2013-03-21 18:06:00,
2013-03-21 11:21:00,51.0,26.0,29.42,NNW,337,1.0,7.0,38,0.00,,,0.00,weatherlink.com 1.10,2013-03-21 18:21:00,
2013-03-21 11:36:00,51.1,23.0,29.42,NW,317,2.0,6.0,34,0.00,,,0.00,weatherlink.com 1.10,2013-03-21 18:36:00,
2013-03-21 11:51:00,52.8,24.0,29.43,West,278,2.0,5.0,32,0.00,,,0.00,weatherlink.com 1.10,2013-03-21 18:51:00,
2013-03-21 12:06:00,53.4,23.0,29.42,WSW,252,4.0,8.0,31,0.00,,,0.00,weatherlink.com 1.10,2013-03-21 19:06:00,
2013-03-21 12:21:00,54.5,22.0,29.41,SSE,150,4.0,5.0,28,0.00,,,0.00,weatherlink.com 1.10,2013-03-21 19:21:00,
2013-03-21 12:36:00,54.2,22.0,29.41,NNW,346,3.0,8.0,29,0.00,,,0.00,weatherlink.com 1.10,2013-03-21 19:36:00,
2013-03-21 13:06:00,53.9,15.0,29.40,SW,222,1.0,7.0,21,0.00,,,0.00,weatherlink.com 1.10,2013-03-21 20:06:00,
2013-03-21 13:22:00,54.5,14.0,29.39,WSW,241,0.0,7.0,20,0.00,,,0.00,weatherlink.com 1.10,2013-03-21 20:22:00,
2013-03-21 13:37:00,53.9,15.0,29.39,WSW,253,5.0,8.0,21,0.00,,,0.00,weatherlink.com 1.10,2013-03-21 20:37:00,
2013-03-21 13:52:00,52.0,16.0,29.40,West,259,9.0,16.0,24,0.00,,,0.00,weatherlink.com 1.10,2013-03-21 20:52:00,
2013-03-21 14:08:00,51.0,13.0,29.39,SW,218,9.0,16.0,22,0.00,,,0.00,weatherlink.com 1.10,2013-03-21 21:08:00,
2013-03-21 14:37:00,51.2,19.0,29.38,SW,229,4.0,13.0,28,0.00,,,0.00,weatherlink.com 1.10,2013-03-21 21:37:00,
2013-03-21 14:52:00,51.7,18.0,29.37,SSW,212,3.0,14.0,26,0.00,,,0.00,weatherlink.com 1.10,2013-03-21 21:52:00,
2013-03-21 15:07:00,53.9,20.0,29.38,SW,215,7.0,8.0,26,0.00,,,0.00,weatherlink.com 1.10,2013-03-21 22:07:00,
2013-03-21 15:22:00,51.2,22.0,29.38,SW,221,14.0,16.0,32,0.00,,,0.00,weatherlink.com 1.10,2013-03-21 22:22:00,
2013-03-21 15:37:00,50.4,23.0,29.36,SW,222,5.0,19.0,34,0.00,,,0.00,weatherlink.com 1.10,2013-03-21 22:37:00,
2013-03-21 15:52:00,51.9,23.0,29.37,South,190,2.0,13.0,33,0.00,,,0.00,weatherlink.com 1.10,2013-03-21 22:52:00,
2013-03-21 16:07:00,51.4,23.0,29.37,SW,231,8.0,11.0,33,0.00,,,0.00,weatherlink.com 1.10,2013-03-21 23:07:00,
2013-03-21 16:22:00,50.5,24.0,29.37,WSW,257,0.0,10.0,35,0.00,,,0.00,weatherlink.com 1.10,2013-03-21 23:22:00,
2013-03-21 16:37:00,50.5,24.0,29.37,West,276,8.0,12.0,36,0.00,,,0.00,weatherlink.com 1.10,2013-03-21 23:37:00,
2013-03-21 16:52:00,49.6,25.0,29.36,WNW,298,5.0,11.0,39,0.00,,,0.00,weatherlink.com 1.10,2013-03-21 23:52:00,
2013-03-21 17:07:00,48.8,25.0,29.36,SSW,210,3.0,12.0,40,0.00,,,0.00,weatherlink.com 1.10,2013-03-22 00:07:00,
2013-03-21 17:22:00,48.7,25.0,29.37,SW,224,3.0,7.0,39,0.00,,,0.00,weatherlink.com 1.10,2013-03-22 00:22:00,
2013-03-21 17:37:00,47.9,24.0,29.37,SSW,205,8.0,15.0,39,0.00,,,0.00,weatherlink.com 1.10,2013-03-22 00:37:00,
2013-03-21 17:52:00,47.8,21.0,29.37,SSW,205,9.0,18.0,35,0.00,,,0.00,weatherlink.com 1.10,2013-03-22 00:52:00,
2013-03-21 18:07:00,47.9,21.0,29.36,SW,218,4.0,18.0,34,0.00,,,0.00,weatherlink.com 1.10,2013-03-22 01:07:00,
2013-03-21 18:22:00,48.1,19.0,29.36,NNW,346,8.0,14.0,32,0.00,,,0.00,weatherlink.com 1.10,2013-03-22 01:22:00,
2013-03-21 18:37:00,47.6,20.0,29.36,SW,231,14.0,19.0,34,0.00,,,0.00,weatherlink.com 1.10,2013-03-22 01:37:00,
2013-03-21 18:52:00,47.5,22.0,29.37,West,264,12.0,22.0,36,0.00,,,0.00,weatherlink.com 1.10,2013-03-22 01:52:00,
2013-03-21 19:07:00,47.1,22.0,29.37,SE,132,6.0,19.0,37,0.00,,,0.00,weatherlink.com 1.10,2013-03-22 02:07:00,
2013-03-21 19:22:00,47.2,23.0,29.36,WSW,238,12.0,23.0,38,0.00,,,0.00,weatherlink.com 1.10,2013-03-22 02:22:00,
2013-03-21 19:37:00,47.0,25.0,29.36,SW,217,15.0,27.0,42,0.00,,,0.00,weatherlink.com 1.10,2013-03-22 02:37:00,
2013-03-21 19:53:00,47.1,25.0,29.37,SW,225,17.0,28.0,42,0.00,,,0.00,weatherlink.com 1.10,2013-03-22 02:53:00,
2013-03-21 20:07:00,46.9,25.0,29.37,SW,233,7.0,21.0,43,0.00,,,0.00,weatherlink.com 1.10,2013-03-22 03:07:00,
2013-03-21 20:22:00,46.6,26.0,29.38,SSW,194,9.0,21.0,45,0.00,,,0.00,weatherlink.com 1.10,2013-03-22 03:22:00,
2013-03-21 20:38:00,46.4,26.0,29.38,SW,215,13.0,20.0,45,0.00,,,0.00,weatherlink.com 1.10,2013-03-22 03:38:00,
2013-03-21 20:53:00,46.3,26.0,29.38,WSW,248,12.0,18.0,45,0.00,,,0.00,weatherlink.com 1.10,2013-03-22 03:53:00,
2013-03-21 21:08:00,46.3,25.0,29.39,WSW,255,16.0,18.0,44,0.00,,,0.00,weatherlink.com 1.10,2013-03-22 04:08:00,
2013-03-21 21:23:00,46.1,26.0,29.39,SSW,194,6.0,17.0,45,0.00,,,0.00,weatherlink.com 1.10,2013-03-22 04:23:00,
2013-03-21 21:38:00,46.1,25.0,29.39,WSW,245,9.0,20.0,44,0.00,,,0.00,weatherlink.com 1.10,2013-03-22 04:38:00,
2013-03-21 21:53:00,46.1,25.0,29.39,SW,232,11.0,18.0,43,0.00,,,0.00,weatherlink.com 1.10,2013-03-22 04:53:00,
2013-03-21 22:08:00,46.2,24.0,29.39,SW,222,14.0,21.0,41,0.00,,,0.00,weatherlink.com 1.10,2013-03-22 05:08:00,
2013-03-21 22:23:00,46.3,23.0,29.39,SW,233,9.0,19.0,40,0.00,,,0.00,weatherlink.com 1.10,2013-03-22 05:23:00,
2013-03-21 22:38:00,46.1,23.0,29.38,South,186,5.0,22.0,41,0.00,,,0.00,weatherlink.com 1.10,2013-03-22 05:38:00,
2013-03-21 22:53:00,45.9,24.0,29.38,SW,226,10.0,19.0,43,0.00,,,0.00,weatherlink.com 1.10,2013-03-22 05:53:00,
2013-03-21 23:08:00,45.7,25.0,29.38,SSW,212,11.0,18.0,44,0.00,,,0.00,weatherlink.com 1.10,2013-03-22 06:08:00,
2013-03-21 23:23:00,45.3,26.0,29.38,SW,228,11.0,13.0,47,0.00,,,0.00,weatherlink.com 1.10,2013-03-22 06:23:00,
2013-03-21 23:38:00,45.1,26.0,29.37,SW,229,7.0,16.0,47,0.00,,,0.00,weatherlink.com 1.10,2013-03-22 06:38:00,
2013-03-21 23:53:00,45.2,26.0,29.37,SSW,212,12.0,16.0,48,0.00,,,0.00,weatherlink.com 1.10,2013-03-22 06:53:00,